Georgetown, SC

5:30 AM EST on November 19, 2017 (GMT -0500)
Georgetown County

Weather History for KGGE - September, 2011

Change the Weather History Date:

Sunday, September 18, 2011

  Actual Average Record
Temperature  
Mean Temperature 64 °F -  
Max Temperature 69 °F 85 °F 87 °F (2010)
Min Temperature 60 °F 66 °F 59 °F (2013)
Growing Degree Days 14 (Base 50)    
Moisture  
Dew Point 61 °F    
Average Humidity 86    
Maximum Humidity 100    
Minimum Humidity 73    
Precipitation  
Precipitation 0.00 in - - ()
Sea Level Pressure  
Sea Level Pressure 30.23 in    
Wind  
Wind Speed 8 mph (North)    
Max Wind Speed 14 mph    
Max Gust Speed 17 mph    
Visibility 10 miles    
Events      
Averages and records for this station are not official NWS values.
T = Trace of Precipitation, MM = Missing Value Source: NWS Daily Summary

Daily Weather History Graph

Daily Weather History Graph

Search for Another Location

Airport or City:

Trip Planner

Search our weather history database for the weather conditions in past years. The results will help you decide how hot, cold, wet, or windy it might be!

Date:

Astronomy

Sep. 18, 2011 Rise Set
Actual Time 7:02 AM EDT 7:19 PM EDT
Civil Twilight 6:37 AM EDT 7:44 PM EDT
Nautical Twilight 6:08 AM EDT 8:13 PM EDT
Astronomical Twilight 5:39 AM EDT 8:43 PM EDT
Moon 10:54 PM EDT (9/18) 12:38 PM EDT (9/18)
Length of Visible Light 13h 06m
Length of Day
12h 17m
Waning Gibbous, 68% of the Moon is Illuminated
Sep 18
Waning Gibbous
Sep 20
Last Quarter
Sep 27
New
Oct 3
First Quarter
Oct 11
Full

Hourly Weather History & Observations

Time (EDT) Temp. Dew Point Humidity Pressure Visibility Wind Dir Wind Speed Gust Speed Precip Events Conditions
12:35 AM 62.6 °F 60.8 °F 94% 30.23 in 10.0 mi North 5.8 mph - N/A   Overcast
12:55 AM 62.6 °F 60.8 °F 94% 30.23 in 10.0 mi North 8.1 mph - N/A   Overcast
1:15 AM 62.6 °F 60.8 °F 94% 30.23 in 10.0 mi North 8.1 mph - N/A   Overcast
1:35 AM 62.6 °F 60.8 °F 94% 30.22 in 10.0 mi NNE 5.8 mph - N/A   Overcast
1:55 AM 62.6 °F 60.8 °F 94% 30.22 in 7.0 mi NNE 9.2 mph - N/A   Overcast
2:15 AM 60.8 °F 60.8 °F 100% 30.22 in 7.0 mi NNE 8.1 mph - N/A   Overcast
2:55 AM 62.6 °F 60.8 °F 94% 30.22 in 10.0 mi NNE 6.9 mph - N/A   Overcast
3:35 AM 62.6 °F 60.8 °F 94% 30.21 in 10.0 mi North 8.1 mph - N/A   Overcast
3:55 AM 62.6 °F 60.8 °F 94% 30.21 in 10.0 mi North 5.8 mph - N/A   Overcast
4:15 AM 60.8 °F 60.8 °F 100% 30.21 in 10.0 mi North 6.9 mph - N/A   Overcast
4:35 AM 62.6 °F 60.8 °F 94% 30.21 in 10.0 mi North 6.9 mph - N/A   Overcast
4:55 AM 62.6 °F 60.8 °F 94% 30.21 in 10.0 mi North 5.8 mph - N/A   Overcast
5:15 AM 62.6 °F 59.0 °F 88% 30.21 in 10.0 mi North 8.1 mph - N/A   Overcast
5:35 AM 60.8 °F 59.0 °F 94% 30.20 in 10.0 mi North 6.9 mph - N/A   Overcast
5:55 AM 60.8 °F 59.0 °F 94% 30.21 in 10.0 mi North 8.1 mph - N/A   Overcast
6:15 AM 60.8 °F 59.0 °F 94% 30.21 in 10.0 mi North 10.4 mph - N/A   Overcast
6:35 AM 60.8 °F 59.0 °F 94% 30.21 in 10.0 mi North 11.5 mph - N/A   Overcast
6:55 AM 60.8 °F 59.0 °F 94% 30.22 in 10.0 mi North 11.5 mph 16.1 mph N/A   Overcast
7:15 AM 60.8 °F 59.0 °F 94% 30.23 in 10.0 mi North 11.5 mph - N/A   Overcast
7:35 AM 60.8 °F 59.0 °F 94% 30.24 in 10.0 mi North 13.8 mph - N/A   Overcast
8:15 AM 60.8 °F 59.0 °F 94% 30.25 in 10.0 mi NNE 10.4 mph - N/A   Overcast
8:35 AM 62.6 °F 59.0 °F 88% 30.25 in 10.0 mi NNE 8.1 mph - N/A   Overcast
8:55 AM 62.6 °F 59.0 °F 88% 30.25 in 10.0 mi NNE 12.7 mph 17.3 mph N/A   Overcast
9:15 AM 62.6 °F 60.8 °F 94% 30.25 in 10.0 mi North 9.2 mph - N/A   Overcast
9:35 AM 62.6 °F 60.8 °F 94% 30.25 in 10.0 mi North 5.8 mph - N/A   Overcast
9:55 AM 62.6 °F 60.8 °F 94% 30.26 in 10.0 mi North 10.4 mph - N/A   Overcast
10:15 AM 64.4 °F 60.8 °F 88% 30.26 in 10.0 mi North 6.9 mph - N/A   Overcast
10:35 AM 64.4 °F 60.8 °F 88% 30.26 in 10.0 mi NNE 9.2 mph - N/A   Overcast
10:55 AM 64.4 °F 60.8 °F 88% 30.27 in 10.0 mi NNE 8.1 mph - N/A   Overcast
11:15 AM 66.2 °F 60.8 °F 83% 30.27 in 10.0 mi NNE 10.4 mph - N/A   Overcast
11:35 AM 66.2 °F 60.8 °F 83% 30.28 in 10.0 mi North 9.2 mph - N/A   Overcast
11:55 AM 66.2 °F 60.8 °F 83% 30.27 in 10.0 mi North 8.1 mph - N/A   Overcast
12:15 PM 66.2 °F 60.8 °F 83% 30.27 in 10.0 mi North 9.2 mph - N/A   Overcast
12:35 PM 66.2 °F 60.8 °F 83% 30.27 in 10.0 mi NNE 8.1 mph - N/A   Overcast
12:55 PM 68.0 °F 60.8 °F 78% 30.26 in 10.0 mi NNE 12.7 mph - N/A   Overcast
1:15 PM 68.0 °F 60.8 °F 78% 30.26 in 10.0 mi NNW 10.4 mph - N/A   Overcast
1:35 PM 69.8 °F 60.8 °F 73% 30.25 in 10.0 mi North 10.4 mph - N/A   Overcast
1:55 PM 69.8 °F 60.8 °F 73% 30.25 in 10.0 mi North 9.2 mph - N/A   Overcast
2:15 PM 69.8 °F 60.8 °F 73% 30.25 in 10.0 mi NNE 11.5 mph - N/A   Overcast
2:35 PM 69.8 °F 62.6 °F 78% 30.24 in 10.0 mi North 8.1 mph - N/A   Overcast
2:55 PM 69.8 °F 60.8 °F 73% 30.24 in 10.0 mi North 11.5 mph 16.1 mph N/A   Overcast
3:15 PM 69.8 °F 62.6 °F 78% 30.23 in 10.0 mi North 6.9 mph - N/A   Overcast
3:35 PM 69.8 °F 60.8 °F 73% 30.22 in 10.0 mi North 11.5 mph - N/A   Overcast
3:55 PM 69.8 °F 60.8 °F 73% 30.21 in 10.0 mi North 8.1 mph - N/A   Overcast
4:15 PM 69.8 °F 60.8 °F 73% 30.21 in 10.0 mi NNE 6.9 mph - N/A   Overcast
4:35 PM 69.8 °F 60.8 °F 73% 30.21 in 10.0 mi North 8.1 mph - N/A   Overcast
4:55 PM 69.8 °F 60.8 °F 73% 30.21 in 10.0 mi North 9.2 mph - N/A   Overcast
5:15 PM 69.8 °F 60.8 °F 73% 30.21 in 10.0 mi North 8.1 mph - N/A   Overcast
5:35 PM 69.8 °F 62.6 °F 78% 30.21 in 10.0 mi NNE 6.9 mph - N/A   Overcast
5:55 PM 69.8 °F 60.8 °F 73% 30.20 in 10.0 mi NNE 6.9 mph - N/A   Overcast
6:15 PM 69.8 °F 60.8 °F 73% 30.20 in 10.0 mi NNE 8.1 mph - N/A   Overcast
6:35 PM 69.8 °F 60.8 °F 73% 30.21 in 10.0 mi North 10.4 mph - N/A   Overcast
6:55 PM 68.0 °F 62.6 °F 83% 30.21 in 10.0 mi North 9.2 mph - N/A   Overcast
7:55 PM 68.0 °F 62.6 °F 83% 30.21 in 10.0 mi North 6.9 mph - N/A   Overcast
8:15 PM 68.0 °F 62.6 °F 83% 30.21 in 10.0 mi North 6.9 mph - N/A   Overcast
8:35 PM 68.0 °F 62.6 °F 83% 30.21 in 10.0 mi North 9.2 mph - N/A   Overcast
8:55 PM 68.0 °F 62.6 °F 83% 30.21 in 10.0 mi North 10.4 mph 16.1 mph N/A   Overcast
9:15 PM 68.0 °F 60.8 °F 78% 30.21 in 10.0 mi North 8.1 mph 16.1 mph N/A   Overcast
9:35 PM 68.0 °F 60.8 °F 78% 30.22 in 10.0 mi North 11.5 mph - N/A   Overcast
9:55 PM 68.0 °F 60.8 °F 78% 30.22 in 10.0 mi North 11.5 mph - N/A   Overcast
10:15 PM 68.0 °F 60.8 °F 78% 30.22 in 10.0 mi NNE 9.2 mph - N/A   Overcast
10:35 PM 68.0 °F 60.8 °F 78% 30.22 in 10.0 mi NNE 8.1 mph - N/A   Overcast
10:55 PM 68.0 °F 60.8 °F 78% 30.22 in 10.0 mi NNE 6.9 mph - N/A   Overcast
11:15 PM 68.0 °F 60.8 °F 78% 30.21 in 10.0 mi North 8.1 mph - N/A   Overcast
11:35 PM 66.2 °F 60.8 °F 83% 30.21 in 10.0 mi North 8.1 mph - N/A   Scattered Clouds
11:55 PM 66.2 °F 60.8 °F 83% 30.21 in 10.0 mi North 6.9 mph - N/A   Mostly Cloudy